KENT RIDGE 1

Last updated on Thu Oct 30 2025 00:02:31 GMT+0000 (Coordinated Universal Time)

1 41167U 15077B 25302.32254769 .00006025 00000+0 22964-3 0 9997 2 41167 14.9788 180.5803 0008685 227.1259 132.8334 15.21130284545867
UTC large
Height (km)
Speed (km/s)
/
Latitude / Longitude
Inclination (degrees)
Orbital Period (minutes)
Azimuth
Elevation
Range (km)
Doppler Factor

Next 0 passes for location: London (51.5072 / 0.1276)

Sorry there are no passes over London.